Location: Głuchołazy
(50.3169°N, 17.3829°E)
Time: 23:13:58
(UTC+01:00)

ISS - Visible Passes

Search period start: 23 January 2019 00:00
Search period end: 02 February 2019 00:00
Orbit: 404 x 410 km, 51.6° (Epoch: 24 January)

Date Brightness Start Highest point End Pass type
(mag) Time Alt. Az. Time Alt. Az. Time Alt. Az.
23 Jan -1.8 18:39:32 10° SSW 18:41:05 20° S 18:41:05 20° S visible
24 Jan -1.9 17:48:58 10° S 17:51:10 17° SE 17:52:04 15° ESE visible
24 Jan -1.0 19:23:58 10° WSW 19:24:47 16° WSW 19:24:47 16° WSW visible
25 Jan -3.2 18:32:45 10° SW 18:35:41 44° S 18:35:41 44° S visible
26 Jan -2.6 17:41:43 10° SSW 17:44:40 31° SSE 17:46:30 18° E visible
26 Jan -1.5 19:17:42 10° WSW 19:19:14 25° W 19:19:14 25° W visible
27 Jan -3.9 18:26:19 10° WSW 18:29:37 76° SSE 18:30:00 64° ESE visible
28 Jan -3.4 17:35:01 10° SW 17:38:14 54° SSE 17:40:43 16° E visible
28 Jan -2.0 19:11:28 10° W 19:13:26 32° W 19:13:26 32° W visible
29 Jan -3.8 18:20:01 10° W 18:23:19 78° N 18:24:07 48° ENE visible
29 Jan -0.2 19:56:41 10° WNW 19:56:50 11° WNW 19:56:50 11° WNW visible
30 Jan -3.8 17:28:33 10° WSW 17:31:52 86° SSE 17:34:47 13° ENE visible
30 Jan -2.5 19:05:13 10° W 19:07:30 40° WNW 19:07:30 40° WNW visible
31 Jan -3.7 18:13:43 10° W 18:17:01 67° N 18:18:09 37° ENE visible
31 Jan -0.5 19:50:21 10° WNW 19:50:52 14° WNW 19:50:52 14° WNW visible
01 Feb -3.7 17:22:13 10° W 17:25:31 73° N 17:28:49 10° ENE visible
01 Feb -3.1 18:58:52 10° WNW 19:01:32 54° WNW 19:01:32 54° WNW visible
